map of UIP home
UIP - Airport
Location
City:  Quimper, Bretagne, France
Name:Pluguffan Airport
Old (Alt.):Quimper Cornouaille Airport
ICAO:LFRQ
IATA:UIP

Details
Type:Airport (Aerodrome, Airfield)
Use:Public/Civil
Latitude:4758'30"N (47.975000)
Longitude:410'04"W (-4.167777)
Elevation:297 ft (91 m)
Variation:1.13W (WMM2015v2 magnetic declination)
0.18 annual change
Runways:2
Longest:7054 × 148 ft (2150 × 45 m), paved

Time
Time Zone:UTC+1 (DST+2)
Local Time:

Weather
METAR:LFRQ 041400Z AUTO VRB03KT 9999 OVC005 11/10 Q1018 TEMPO 2000 -RA BECMG SCT005 BKN012
TAF:LFRQ 041100Z 0412/0512 20008KT 9999 SCT005 BKN012
TEMPO 0412/0415 2000 -RA OVC003
BECMG 0412/0415 VRB04KT
TEMPO 0500/0503 3000 BR
TEMPO 0503/0512 4000 -RA OVC008
BECMG 0509/0512 15012KT

Related Locations
Nearby:
Farthest:NZTI: 12140 mi / 19537 km
Taieri, OTA, NZ

Find:

   beyond  
but within

Other Information
Maps:
NOTAMs:
Links:
Sources:

  
  • flag of France
  • flag of Bretagne
  

Sectional Chart

Flight Planning
at skyvector.com

Satellite Image

Google Maps Satellite view

 

Copyright © 2004-2019 Karl L. Swartz. All rights reserved.
The Great Circle Mapper name and logo are trademarks of the Great Circle Mapper.
All other trademarks mentioned herein belong to their respective owners.
Please see credits for attibutions and further copyright information.

  Follow gcmap on Facebook Follow gcmap on Twitter GCmap on LinkedIn

hCard Microformat

Geo Microformat